Probability
3 3 0 0 0 0 0 0 0 0 3 0 0 0 0 6 10 10 10 10 13 16 10 13 23 23 29 42 52 58 48 58 58 48 42 48 42 48 42 45 42 52 52 52
0 0 0 0 0 0 0 0 0 0 3 0 0 3 3 3 10 10 13 10 13 13 13 16 23 26 29 35 45 45 55 52 55 55 48 52 48 45 35 45 52 52 48 48
0 0 0 0 0 0 0 0 0 0 0 0 3 3 3 10 13 16 10 10 10 13 13 16 16 23 26 35 45 42 45 45 55 48 42 45 55 52 42 48 48 45 45 45
0 0 0 0 0 0 0 0 0 0 0 0 0 0 6 10 13 16 16 16 10 10 13 19 19 26 35 35 39 48 52 58 65 65 48 45 58 45 39 48 45 48 48 52
0 0 0 0 0 0 0 0 0 0 0 0 0 0 0 6 16 26 23 16 16 10 19 23 26 35 35 29 39 42 58 65 65 61 61 61 52 48 35 45 55 55 55 52
0 0 0 0 0 0 0 0 0 0 0 0 0 0 0 6 10 13 16 16 26 19 16 23 23 42 39 32 29 39 58 71 68 65 65 65 65 58 61 61 58 58 58 58
0 0 0 0 0 0 0 0 0 0 0 0 0 0 0 6 6 13 13 16 23 26 26 23 35 48 45 42 39 39 55 68 68 68 65 65 65 61 58 58 58 58 45 52
0 0 0 0 0 0 0 0 0 0 0 0 0 0 0 6 6 6 16 26 26 26 29 29 35 42 48 45 52 52 68 71 71 68 65 61 61 61 58 58 58 58 58 48
0 0 0 0 0 0 0 0 0 0 0 0 0 0 3 10 10 13 16 23 26 29 32 32 26 42 42 45 58 52 68 74 74 74 71 65 65 65 61 61 58 55 61 52
0 0 0 0 0 0 0 0 0 0 0 0 0 3 3 6 16 10 19 23 29 29 32 32 32 39 42 45 52 48 52 65 71 65 61 58 61 61 61 61 61 61 58 48
0 0 0 0 0 0 0 0 0 0 0 0 0 3 6 10 16 10 23 32 29 26 29 29 39 39 35 42 42 55 52 61 65 65 61 61 61 61 61 61 55 58 58 58
0 0 0 0 0 0 0 0 0 0 0 0 0 0 0 6 16 19 19 23 35 35 29 32 35 39 45 48 45 52 52 55 58 65 65 61 61 61 58 55 55 55 55 55
0 0 0 0 0 0 0 0 0 0 0 0 0 0 3 16 16 26 29 35 39 45 42 32 35 45 52 48 52 52 55 55 55 58 58 61 58 58 58 55 55 55 55 55
0 0 0 0 0 0 0 0 0 0 0 0 0 0 10 13 19 29 32 35 39 42 45 39 48 48 55 58 58 58 55 55 55 55 52 52 58 58 55 55 58 58 52 48
0 0 0 0 0 0 0 0 0 0 0 0 0 10 6 13 26 23 26 26 32 39 39 45 55 61 65 68 68 68 61 61 58 55 58 55 48 52 48 48 48 48 48 45
0 0 0 0 0 0 0 0 0 0 0 0 3 6 13 19 26 23 26 23 23 35 42 42 48 58 58 61 68 68 65 61 65 55 52 48 48 48 48 48 45 48 52 45
0 0 0 0 0 0 0 0 0 3 6 3 6 6 19 19 23 19 16 19 26 32 32 42 42 52 52 55 65 65 65 68 61 55 45 42 45 45 45 42 45 45 48 48
3 3 3 0 0 0 0 0 0 3 3 3 6 6 16 19 19 19 16 26 23 29 26 26 42 39 45 39 48 52 52 55 55 52 42 39 45 45 45 42 45 45 48 52
3 3 3 0 0 3 0 0 0 0 3 0 0 10 16 19 19 13 13 16 19 23 23 29 39 39 35 39 42 45 48 48 48 45 39 42 39 45 42 45 45 48 48 48
3 3 0 0 0 0 0 0 0 0 0 0 0 10 16 16 13 13 16 16 16 16 29 35 45 42 45 48 42 45 48 48 48 39 39 45 45 42 48 48 48 45 48 48
0 0 0 0 0 0 0 0 3 0 0 6 10 10 13 13 16 16 16 23 23 29 32 35 35 42 39 42 42 39 45 48 45 39 39 42 45 39 42 42 42 42 42 39
0 0 3 0 0 0 0 3 0 6 6 6 10 10 13 13 13 10 19 23 23 29 26 29 39 42 45 42 42 48 45 42 42 39 39 42 45 39 32 45 52 45 39 39
0 0 0 0 0 3 3 3 6 6 10 10 10 13 13 13 10 16 19 23 26 26 26 23 35 42 42 45 45 45 42 45 42 39 39 39 39 42 42 45 39 39 45 35
0 0 0 0 3 3 3 3 6 6 10 10 13 10 13 16 19 19 23 23 26 26 26 29 35 42 45 39 35 42 42 42 45 45 39 42 39 39 35 29 32 35 29 26
0 0 3 3 0 3 3 3 3 6 6 6 10 10 10 19 26 23 23 23 26 23 26 29 35 42 42 35 35 39 39 39 42 45 39 32 32 32 32 29 32 23 26 29
0 0 3 3 3 3 3 3 3 3 6 6 10 13 16 16 23 23 23 23 26 23 23 26 35 32 32 35 32 32 39 39 35 35 39 29 32 32 32 32 26 16 19 6
Height
5916 5920 5921 5923 5924 5925 5926 5927 5927 5927 5927 5927 5926 5926 5925 5924 5923 5921 5920 5919 5917 5916 5914 5913 5911 5910 5909 5908 5907 5906 5905 5905 5904 5903 5903 5902 5902 5901 5901 5900 5899 5899 5899 5898
5916 5918 5920 5921 5922 5924 5925 5926 5927 5927 5927 5927 5927 5927 5926 5925 5924 5923 5922 5920 5919 5918 5916 5915 5913 5912 5911 5910 5909 5908 5907 5906 5905 5904 5904 5903 5902 5902 5901 5900 5900 5899 5898 5898
5914 5917 5917 5919 5921 5923 5924 5925 5926 5926 5926 5926 5927 5928 5927 5926 5924 5923 5922 5921 5920 5919 5918 5916 5915 5914 5912 5911 5910 5909 5908 5907 5906 5905 5904 5904 5903 5902 5901 5900 5900 5899 5898 5897
5911 5913 5915 5917 5919 5921 5923 5923 5924 5925 5926 5927 5927 5929 5927 5926 5925 5924 5923 5922 5921 5920 5919 5917 5916 5915 5914 5913 5911 5910 5909 5908 5907 5906 5905 5904 5903 5903 5901 5900 5899 5898 5897 5896
5908 5910 5913 5915 5917 5918 5920 5921 5922 5923 5925 5926 5926 5927 5929 5925 5925 5924 5923 5922 5921 5920 5919 5918 5917 5916 5915 5914 5912 5911 5910 5909 5908 5907 5906 5904 5903 5902 5901 5900 5899 5898 5897 5896
5905 5907 5909 5912 5914 5915 5917 5919 5920 5921 5923 5925 5925 5926 5927 5925 5924 5923 5922 5921 5921 5920 5919 5918 5917 5916 5915 5914 5913 5912 5911 5910 5909 5907 5906 5905 5903 5902 5901 5900 5899 5897 5896 5895
5900 5903 5905 5908 5910 5912 5914 5917 5920 5921 5922 5923 5922 5923 5925 5923 5922 5922 5922 5921 5920 5920 5919 5918 5917 5916 5915 5914 5913 5912 5911 5910 5909 5907 5906 5905 5903 5902 5901 5899 5898 5896 5895 5894
5897 5899 5901 5903 5906 5908 5910 5914 5917 5919 5921 5921 5919 5920 5922 5921 5920 5920 5920 5920 5920 5919 5918 5917 5917 5916 5915 5914 5913 5912 5911 5909 5908 5907 5906 5904 5903 5901 5900 5898 5897 5895 5894 5893
5893 5896 5897 5899 5901 5904 5905 5908 5912 5914 5915 5916 5918 5917 5918 5918 5918 5918 5918 5919 5918 5918 5917 5916 5915 5915 5914 5913 5912 5911 5910 5908 5907 5906 5905 5903 5902 5900 5899 5897 5896 5894 5893 5891
5887 5890 5891 5893 5896 5898 5901 5904 5906 5909 5910 5913 5914 5914 5916 5915 5916 5916 5916 5916 5916 5916 5915 5914 5914 5913 5912 5911 5910 5909 5908 5907 5906 5905 5903 5902 5900 5899 5897 5896 5894 5893 5891 5890
5881 5885 5887 5889 5891 5894 5896 5899 5901 5904 5906 5909 5911 5914 5911 5911 5912 5913 5913 5913 5913 5913 5912 5912 5911 5911 5910 5909 5908 5907 5906 5905 5904 5903 5901 5900 5898 5897 5895 5894 5892 5890 5889 5887
5876 5879 5882 5884 5886 5888 5891 5893 5896 5899 5901 5902 5906 5911 5906 5907 5907 5908 5909 5909 5909 5909 5909 5909 5908 5908 5907 5906 5906 5905 5904 5903 5902 5900 5899 5897 5896 5894 5893 5891 5890 5888 5886 5885
5869 5873 5876 5879 5882 5883 5884 5887 5890 5893 5895 5897 5900 5905 5902 5902 5903 5903 5904 5905 5905 5905 5905 5905 5905 5904 5904 5903 5902 5902 5901 5900 5898 5897 5896 5894 5893 5891 5890 5888 5886 5885 5883 5882
5863 5866 5870 5874 5875 5877 5879 5881 5884 5886 5889 5892 5894 5896 5896 5897 5898 5898 5899 5899 5900 5900 5901 5901 5901 5900 5900 5899 5899 5898 5897 5896 5895 5894 5893 5891 5890 5888 5886 5884 5883 5881 5879 5878
5855 5859 5862 5865 5868 5870 5872 5874 5877 5880 5882 5885 5888 5889 5890 5891 5892 5893 5893 5893 5894 5895 5895 5896 5896 5895 5895 5895 5894 5894 5893 5892 5891 5890 5889 5888 5886 5884 5882 5880 5878 5877 5875 5873
5848 5851 5854 5857 5860 5863 5865 5868 5870 5872 5875 5877 5879 5881 5882 5884 5885 5886 5887 5887 5888 5888 5889 5889 5890 5890 5890 5890 5889 5889 5888 5888 5887 5886 5884 5883 5881 5879 5878 5876 5874 5872 5870 5868
5840 5843 5847 5850 5853 5855 5857 5860 5863 5865 5868 5870 5872 5875 5875 5877 5878 5879 5879 5880 5881 5881 5882 5882 5883 5883 5884 5884 5883 5883 5882 5882 5881 5880 5879 5877 5876 5874 5872 5870 5868 5866 5864 5862
5832 5835 5838 5842 5845 5846 5852 5852 5855 5857 5860 5862 5864 5865 5867 5869 5870 5871 5872 5872 5872 5873 5874 5875 5875 5876 5876 5877 5877 5876 5876 5875 5874 5873 5872 5871 5870 5868 5866 5864 5862 5860 5858 5856
5823 5827 5830 5833 5835 5838 5842 5843 5847 5849 5851 5853 5855 5857 5858 5860 5862 5863 5863 5864 5864 5865 5866 5867 5868 5868 5868 5869 5869 5869 5868 5868 5867 5866 5865 5864 5863 5861 5859 5857 5855 5853 5851 5849
5814 5817 5821 5823 5826 5829 5833 5834 5838 5841 5842 5844 5846 5848 5850 5851 5853 5854 5854 5855 5856 5856 5857 5858 5859 5860 5860 5860 5860 5860 5860 5860 5859 5858 5857 5856 5855 5853 5851 5849 5847 5845 5843 5841
5804 5807 5810 5813 5815 5819 5821 5824 5829 5832 5833 5835 5837 5839 5840 5841 5843 5844 5845 5845 5846 5847 5849 5849 5850 5851 5851 5851 5851 5851 5851 5850 5850 5849 5848 5847 5846 5845 5843 5841 5839 5837 5834 5832
5794 5797 5800 5803 5806 5810 5810 5814 5818 5821 5823 5825 5827 5829 5830 5832 5832 5834 5835 5836 5837 5838 5839 5840 5841 5841 5841 5841 5841 5841 5841 5841 5841 5840 5839 5838 5837 5835 5833 5832 5830 5828 5826 5824
5785 5788 5790 5794 5797 5798 5800 5803 5806 5809 5812 5814 5816 5818 5820 5821 5822 5823 5824 5825 5826 5827 5828 5829 5830 5830 5831 5831 5831 5831 5832 5831 5830 5830 5829 5828 5827 5825 5824 5822 5820 5818 5816 5815
5775 5778 5781 5783 5786 5788 5790 5792 5795 5797 5800 5802 5804 5806 5808 5810 5811 5812 5813 5814 5815 5816 5817 5818 5819 5819 5820 5820 5820 5820 5821 5820 5820 5819 5818 5818 5817 5815 5814 5812 5810 5809 5807 5806
5766 5769 5771 5774 5776 5778 5781 5782 5784 5786 5788 5790 5793 5795 5796 5798 5799 5800 5801 5802 5803 5804 5805 5806 5807 5808 5808 5809 5809 5809 5809 5809 5808 5808 5807 5807 5806 5805 5804 5802 5801 5800 5798 5796
5757 5760 5762 5764 5766 5768 5771 5772 5774 5776 5778 5779 5781 5783 5785 5786 5788 5789 5790 5791 5792 5792 5793 5794 5795 5796 5797 5797 5798 5798 5798 5797 5797 5796 5796 5796 5796 5795 5793 5792 5791 5789 5787 5785
Wind_Speed
13 12 10 9 8 7 6 4 2 1 1 2 3 5 6 7 7 8 8 9 9 10 10 10 10 10 9 9 8 8 8 7 7 6 6 5 5 4 4 3 2 2 2 2
14 14 12 11 9 8 7 5 4 2 1 1 2 3 5 6 6 6 7 8 8 9 9 9 9 8 9 9 8 8 8 7 6 6 6 5 4 4 4 3 2 2 3 3
16 15 14 13 12 10 8 7 6 5 3 2 2 4 4 4 5 5 6 6 7 8 8 8 7 7 7 8 8 6 6 6 6 5 4 4 4 4 4 4 4 4 4 4
19 18 16 14 13 12 10 10 8 7 5 4 3 3 4 4 4 4 5 5 6 6 7 7 7 6 6 6 7 7 6 5 5 4 4 4 4 4 5 5 5 5 4 4
20 20 18 16 15 14 13 12 11 9 8 6 6 4 6 4 3 4 4 5 5 5 6 6 6 5 5 5 5 6 7 6 5 5 5 4 5 5 5 6 6 5 5 5
22 21 20 19 17 17 15 14 13 11 10 9 8 6 6 6 5 4 4 4 4 4 4 5 5 5 5 4 5 5 5 6 6 6 6 6 6 6 6 7 6 6 5 5
24 24 23 21 20 19 17 14 12 11 10 11 11 8 7 7 6 5 5 5 5 5 4 5 5 6 5 5 5 5 5 5 6 6 7 7 7 8 8 8 8 7 7 6
24 24 24 23 23 21 19 17 14 12 11 12 14 11 9 8 7 7 7 6 6 6 6 5 6 6 6 5 5 5 6 6 7 7 7 7 7 8 9 9 9 8 8 8
25 25 24 24 23 23 22 20 17 16 15 14 14 14 11 10 9 9 8 8 8 8 8 7 7 7 7 7 6 7 7 7 7 8 8 8 8 9 9 9 9 9 9 9
26 25 25 25 24 24 23 21 20 18 16 15 15 14 14 13 11 11 11 10 10 10 9 9 9 9 9 8 8 8 8 9 9 9 9 9 10 10 10 10 10 10 9 10
26 26 26 25 25 24 24 23 21 20 19 16 15 15 15 15 14 13 13 13 12 12 11 11 11 11 10 10 10 10 10 10 10 11 11 11 11 11 11 11 11 11 11 11
27 26 26 26 27 26 25 24 23 22 22 21 18 17 18 17 16 16 16 16 15 14 13 12 12 12 11 11 11 11 11 11 11 12 12 12 12 12 12 12 13 13 13 13
29 29 27 26 28 28 28 27 25 24 24 22 20 19 20 19 19 19 19 19 18 16 15 14 14 14 13 13 13 13 13 13 13 13 13 13 13 14 14 14 14 15 14 15
32 32 31 28 27 28 28 28 27 26 25 23 22 22 22 21 20 20 20 20 20 19 18 17 16 16 16 16 15 15 14 14 14 14 15 15 15 16 16 17 17 16 16 16
32 33 32 31 30 30 30 29 28 28 27 26 24 24 24 23 22 22 22 21 21 21 20 19 19 18 18 18 18 17 16 17 16 17 17 17 17 17 18 18 18 18 18 18
33 33 33 32 32 31 32 31 30 30 29 28 28 28 26 25 25 24 23 23 23 24 24 22 21 20 20 20 20 20 19 19 19 19 20 19 19 19 20 20 20 20 20 21
34 34 33 33 32 33 34 33 32 31 31 30 30 30 29 27 26 25 25 24 24 24 25 25 24 23 22 22 22 22 22 22 22 22 22 22 22 22 22 23 23 23 23 23
35 35 35 34 34 36 34 34 33 33 32 32 32 32 31 29 28 27 27 26 25 25 25 26 25 25 25 25 25 25 25 25 25 24 24 24 24 24 24 25 25 25 25 25
37 36 37 37 37 36 36 35 33 33 33 33 33 33 32 31 30 30 29 28 27 27 27 28 28 28 28 28 28 28 27 28 28 27 26 25 25 26 26 27 27 27 28 28
37 38 38 39 39 38 37 37 34 33 34 34 33 33 33 32 32 31 31 30 30 29 29 30 31 31 30 29 30 30 30 30 30 28 28 27 28 28 29 29 29 29 29 30
37 38 38 39 39 39 40 39 36 36 36 35 34 34 34 35 34 34 32 32 32 32 32 32 32 33 33 32 32 32 32 31 31 31 30 30 30 30 31 31 31 31 31 31
35 37 38 38 39 39 40 40 39 39 38 37 37 36 36 36 36 36 35 35 35 35 35 36 36 36 35 35 35 35 34 34 34 34 33 32 32 33 33 33 33 33 33 32
35 36 37 39 39 39 39 40 40 40 40 40 39 38 38 38 37 37 37 37 37 38 38 38 38 38 38 37 37 36 36 36 36 36 35 35 35 35 35 35 35 34 33 33
34 34 36 37 37 37 37 38 38 39 39 40 41 40 40 40 39 39 39 38 38 39 40 39 39 39 39 38 38 38 38 38 38 38 38 37 37 36 36 36 36 35 35 35
33 33 34 35 36 36 36 36 37 38 38 39 40 41 40 39 39 39 39 39 39 39 39 40 39 39 39 40 40 39 39 39 39 39 39 39 38 38 38 37 37 37 37 36
31 32 33 33 34 35 35 35 36 37 38 39 39 39 40 40 40 39 39 38 39 39 39 40 40 41 41 42 41 41 41 41 41 40 40 40 39 39 38 38 37 37 37 37
Wind_Direction
190 189 189 192 189 194 195 191 191 228 57 57 49 45 34 32 37 40 43 45 44 44 46 51 57 62 65 68 70 68 71 71 70 69 71 69 66 58 48 47 39 25 4 335
197 199 202 204 204 205 204 209 224 257 281 353 21 31 25 25 29 28 33 38 38 37 39 44 52 59 62 63 66 67 68 66 62 62 65 60 54 46 37 32 13 356 341 330
207 211 209 209 211 212 214 222 236 254 276 292 327 358 350 356 13 15 22 31 34 34 35 37 43 49 56 57 52 55 58 59 57 56 55 54 43 30 20 20 5 355 349 342
213 215 214 215 216 219 227 230 237 247 262 275 292 316 315 319 338 352 2 15 25 27 29 34 33 38 44 45 40 37 40 44 43 43 36 32 31 20 13 3 353 350 349 348
219 218 219 220 222 225 230 232 238 247 258 267 279 282 291 295 311 325 333 347 3 11 18 24 24 24 29 29 27 27 25 24 21 17 15 10 8 6 4 358 349 343 343 338
222 222 223 224 227 230 233 236 242 250 255 260 261 261 272 282 281 288 299 318 331 340 350 3 6 6 6 8 8 9 9 7 9 9 4 1 357 354 354 355 349 339 335 331
225 227 228 228 232 234 235 237 246 255 258 258 257 256 257 262 259 267 277 290 304 313 319 329 339 343 344 341 340 344 349 350 351 351 350 351 354 354 352 347 347 342 339 331
229 232 232 232 233 236 235 233 235 240 249 253 261 258 256 256 258 268 270 274 287 298 306 312 317 321 321 322 322 324 329 333 335 337 337 339 340 343 344 343 342 342 341 340
228 232 234 232 233 235 236 233 235 242 246 247 250 257 258 256 256 265 270 274 280 289 293 298 302 309 308 308 311 313 315 318 320 322 324 327 329 329 330 330 330 332 332 332
228 228 232 233 233 235 237 238 239 238 243 251 257 257 254 254 258 263 270 276 278 281 280 284 290 299 303 304 305 306 307 307 308 311 314 314 316 317 318 319 320 322 325 326
227 228 232 233 232 235 238 239 239 240 242 247 255 258 257 253 257 262 266 272 274 273 275 276 282 287 293 296 298 297 301 303 305 306 307 306 308 312 312 311 313 314 314 315
227 229 233 235 235 235 236 237 240 243 247 247 248 256 258 256 259 260 262 266 269 269 270 272 276 280 284 288 292 294 295 297 301 303 304 305 307 307 306 306 306 306 308 309
229 230 233 236 239 237 237 238 239 243 247 251 252 255 256 257 259 260 262 264 265 266 267 270 272 274 278 281 285 289 288 289 293 298 302 303 304 303 302 301 302 302 302 304
232 233 233 234 238 240 240 240 240 242 245 250 253 253 255 257 257 258 262 263 262 263 265 268 270 271 274 277 279 282 284 285 288 293 297 299 300 301 301 298 298 300 299 298
233 235 236 236 237 239 242 241 241 245 246 246 251 255 256 256 257 257 261 262 261 261 263 267 270 270 272 274 277 278 281 283 286 291 293 295 297 299 300 298 294 294 296 297
235 236 237 238 238 239 241 242 243 246 248 250 252 255 257 258 259 257 258 260 261 261 264 265 266 267 271 272 274 275 278 281 284 287 289 292 294 295 297 297 295 294 294 295
237 238 239 240 240 241 242 244 245 247 249 251 253 256 259 259 260 260 259 260 262 262 263 263 264 265 269 271 272 273 277 280 282 283 285 287 290 292 293 294 294 294 293 293
238 240 240 242 242 243 245 245 246 247 249 252 253 255 258 259 260 260 260 260 261 260 259 259 262 263 266 270 272 273 275 279 281 282 283 284 286 289 291 293 293 294 293 293
241 242 242 242 245 246 247 247 247 248 249 250 253 256 258 259 260 260 260 259 258 256 255 256 259 261 263 267 270 272 275 276 278 279 282 283 284 286 288 290 290 291 291 291
243 243 244 244 245 247 249 249 248 249 251 250 252 254 256 258 259 261 261 260 258 255 253 254 256 258 261 264 267 270 273 274 274 276 278 280 281 283 285 287 288 289 289 290
244 244 245 245 246 247 248 249 249 249 251 251 252 254 256 258 258 259 260 259 257 256 256 255 256 259 262 263 265 267 270 271 273 275 276 277 279 281 282 284 285 287 288 288
245 245 244 245 247 247 249 250 249 250 251 252 253 254 256 258 260 260 259 259 258 257 258 258 259 261 262 264 265 267 268 269 271 273 274 274 276 279 281 282 283 284 285 286
244 245 246 246 248 249 251 251 251 251 252 253 254 254 255 258 260 261 259 259 258 258 259 260 261 263 263 264 265 265 266 268 270 270 270 271 273 276 278 280 282 282 283 286
246 245 247 248 249 250 251 252 252 253 254 254 255 255 256 258 259 260 260 259 259 258 259 260 261 262 263 263 263 264 265 266 268 269 270 271 273 275 278 279 280 280 283 284
245 246 248 249 250 251 251 252 253 254 255 255 256 257 258 259 259 259 260 259 259 259 259 260 260 261 262 262 263 264 265 267 268 268 269 271 273 276 277 278 278 279 281 283
246 246 246 248 249 251 251 252 253 254 255 255 256 258 259 260 260 260 260 260 260 260 260 260 260 260 261 262 263 264 265 267 267 268 270 271 272 274 276 277 278 280 282 282